| time (UTC) | temp F | wind direction | speed MPH | gust MPH | rain 1hr in | rain 24hr in | rain mn in | humidity % | barometer mb |
| 20260505022359 | 71 | 5 | 6.0 | 11.0 | 0.00 | 0.00 | 0.00 | 57 | 1010.7 |
| 20260505021343 | 72 | 345 | 6.0 | 11.0 | 0.00 | 0.00 | 0.00 | 53 | 1010.6 |
| 20260505020322 | 73 | 343 | 4.0 | 10.0 | 0.00 | 0.00 | 0.00 | 50 | 1010.5 |
| 20260505015406 | 74 | 317 | 6.0 | 11.0 | 0.00 | 0.00 | 0.00 | 51 | 1010.4 |
| 20260505014404 | 75 | 302 | 5.0 | 10.0 | 0.00 | 0.00 | 0.00 | 50 | 1010.3 |
| 20260505013339 | 76 | 305 | 5.0 | 9.0 | 0.00 | 0.00 | 0.00 | 49 | 1010.3 |
| 20260505012359 | 77 | 302 | 2.0 | 10.0 | 0.00 | 0.00 | 0.00 | 48 | 1010.2 |
| 20260505011335 | 78 | 319 | 3.0 | 9.0 | 0.00 | 0.00 | 0.00 | 46 | 1010.3 |
| 20260505010321 | 78 | 309 | 1.0 | 5.0 | 0.00 | 0.00 | 0.00 | 45 | 1010.3 |
| 20260505005318 | 78 | 308 | 3.0 | 10.0 | 0.00 | 0.00 | 0.00 | 43 | 1010.3 |
| 20260505004320 | 79 | 186 | 2.0 | 6.0 | 0.00 | 0.00 | 0.00 | 43 | 1010.3 |
| 20260505003340 | 79 | 207 | 2.0 | 7.0 | 0.00 | 0.00 | 0.00 | 42 | 1010.3 |
| 20260505002350 | 79 | 193 | 2.0 | 7.0 | 0.00 | 0.00 | 0.00 | 43 | 1010.3 |
| 20260505001319 | 80 | 194 | 3.0 | 7.0 | 0.00 | 0.00 | 0.00 | 43 | 1010.3 |
| 20260505000337 | 80 | 200 | 3.0 | 6.0 | 0.00 | 0.00 | 0.00 | 42 | 1010.4 |
| 20260504235341 | 80 | 176 | 5.0 | 9.0 | 0.00 | 0.00 | 0.00 | 42 | 1010.4 |
| 20260504234326 | 80 | 314 | 1.0 | 6.0 | 0.00 | 0.00 | 0.00 | 42 | 1010.4 |
| 20260504233327 | 80 | 196 | 1.0 | 7.0 | 0.00 | 0.00 | 0.00 | 42 | 1010.5 |
| 20260504232346 | 80 | 325 | 2.0 | 8.0 | 0.00 | 0.00 | 0.00 | 44 | 1010.4 |
| 20260504231403 | 80 | 161 | 6.0 | 9.0 | 0.00 | 0.00 | 0.00 | 42 | 1010.5 |
| 20260504230352 | 80 | 171 | 5.0 | 9.0 | 0.00 | 0.00 | 0.00 | 44 | 1010.5 |
| 20260504225319 | 80 | 13 | 2.0 | 8.0 | 0.00 | 0.00 | 0.00 | 44 | 1010.5 |
| 20260504224345 | 80 | 188 | 5.0 | 9.0 | 0.00 | 0.00 | 0.00 | 44 | 1010.7 |
| 20260504223324 | 80 | 184 | 2.0 | 9.0 | 0.00 | 0.00 | 0.00 | 44 | 1010.8 |
| 20260504222341 | 80 | 177 | 3.0 | 8.0 | 0.00 | 0.00 | 0.00 | 44 | 1010.8 |
| 20260504221318 | 80 | 186 | 6.0 | 12.0 | 0.00 | 0.00 | 0.00 | 43 | 1010.9 |
| 20260504220331 | 81 | 335 | 1.0 | 8.0 | 0.00 | 0.00 | 0.00 | 44 | 1011.0 |
| 20260504215319 | 80 | 177 | 7.0 | 11.0 | 0.00 | 0.00 | 0.00 | 44 | 1011.1 |
| 20260504214317 | 80 | 218 | 4.0 | 8.0 | 0.00 | 0.00 | 0.00 | 46 | 1011.2 |
| 20260504213357 | 80 | 215 | 6.0 | 10.0 | 0.00 | 0.00 | 0.00 | 46 | 1011.3 |
| 20260504212346 | 81 | 174 | 2.0 | 6.0 | 0.00 | 0.00 | 0.00 | 44 | 1011.3 |
| 20260504211403 | 80 | 214 | 327.0 | 327.0 | 0.00 | 0.00 | 0.00 | 43 | 1011.3 |
| 20260504210329 | 80 | 312 | 4.0 | 10.0 | 0.00 | 0.00 | 0.00 | 41 | 1011.4 |
| 20260504204317 | 79 | 171 | 0.0 | 9.0 | 0.00 | 0.00 | 0.00 | 44 | 1011.4 |
| 20260504203334 | 78 | 198 | 4.0 | 9.0 | 0.00 | 0.00 | 0.00 | 47 | 1011.5 |
| 20260504202342 | 77 | 202 | 3.0 | 6.0 | 0.00 | 0.00 | 0.00 | 46 | 1011.6 |
| 20260504201350 | 77 | 200 | 4.0 | 8.0 | 0.00 | 0.00 | 0.00 | 46 | 1011.5 |
| 20260504200339 | 76 | 210 | 4.0 | 8.0 | 0.00 | 0.00 | 0.00 | 50 | 1011.6 |
| 20260504195326 | 76 | 155 | 4.0 | 8.0 | 0.00 | 0.00 | 0.00 | 48 | 1011.6 |
| 20260504194324 | 76 | 172 | 5.0 | 9.0 | 0.00 | 0.00 | 0.00 | 47 | 1011.6 |
| 20260504193324 | 76 | 119 | 2.0 | 7.0 | 0.00 | 0.00 | 0.00 | 50 | 1011.6 |
| 20260504192351 | 75 | 187 | 5.0 | 10.0 | 0.00 | 0.00 | 0.00 | 50 | 1011.5 |
| 20260504191341 | 75 | 177 | 3.0 | 8.0 | 0.00 | 0.00 | 0.00 | 52 | 1011.6 |
| 20260504190359 | 75 | 157 | 3.0 | 8.0 | 0.00 | 0.00 | 0.00 | 51 | 1011.7 |
| 20260504185346 | 76 | 321 | 3.0 | 6.0 | 0.00 | 0.00 | 0.00 | 51 | 1011.8 |
| 20260504184318 | 75 | 219 | 2.0 | 8.0 | 0.00 | 0.00 | 0.00 | 52 | 1011.9 |
| 20260504183355 | 75 | 209 | 2.0 | 7.0 | 0.00 | 0.00 | 0.00 | 50 | 1011.9 |
| 20260504182344 | 74 | 173 | 5.0 | 8.0 | 0.00 | 0.00 | 0.00 | 52 | 1011.9 |
| 20260504181335 | 74 | 180 | 2.0 | 7.0 | 0.00 | 0.00 | 0.00 | 52 | 1012.0 |
| 20260504180321 | 73 | 123 | 4.0 | 7.0 | 0.00 | 0.00 | 0.00 | 58 | 1011.9 |
| 20260504175318 | 73 | 173 | 5.0 | 8.0 | 0.00 | 0.00 | 0.00 | 56 | 1011.9 |
| 20260504174336 | 72 | 141 | 2.0 | 8.0 | 0.00 | 0.00 | 0.00 | 58 | 1011.9 |
| 20260504173356 | 72 | 205 | 3.0 | 9.0 | 0.00 | 0.00 | 0.00 | 59 | 1011.8 |
| 20260504172342 | 71 | 180 | 2.0 | 8.0 | 0.00 | 0.00 | 0.00 | 58 | 1011.8 |
| 20260504171337 | 71 | 201 | 3.0 | 5.0 | 0.00 | 0.00 | 0.00 | 59 | 1012.0 |
| 20260504170344 | 71 | 169 | 2.0 | 5.0 | 0.00 | 0.00 | 0.00 | 59 | 1012.0 |
| 20260504160325 | 63 | 172 | 2.0 | 3.0 | 0.00 | 0.00 | 0.00 | 73 | 1012.0 |
| 20260504150341 | 60 | 87 | 0.0 | 1.0 | 0.00 | 0.00 | 0.00 | 80 | 1011.9 |
| 20260504140338 | 50 | 318 | 0.0 | 0.0 | 0.00 | 0.00 | 0.00 | 95 | 1011.3 |
| 20260504130314 | 47 | 318 | 0.0 | 0.0 | 0.00 | 0.00 | 0.00 | 94 | 1011.0 |
| 20260504120315 | 47 | 318 | 0.0 | 0.0 | 0.00 | 0.00 | 0.00 | 93 | 1010.7 |
| 20260504110334 | 49 | 318 | 0.0 | 0.0 | 0.00 | 0.00 | 0.00 | 92 | 1010.7 |
| 20260504100331 | 50 | 318 | 0.0 | 0.0 | 0.00 | 0.00 | 0.00 | 91 | 1010.9 |
| 20260504081327 | 52 | 318 | 0.0 | 0.0 | 0.00 | 0.00 | 0.00 | 90 | 1011.0 |
| 20260504080315 | 52 | 318 | 0.0 | 0.0 | 0.00 | 0.00 | 0.00 | 89 | 1011.0 |
| 20260504070334 | 54 | 318 | 0.0 | 0.0 | 0.00 | 0.00 | 0.00 | 86 | 1010.9 |
| 20260504050332 | 59 | 318 | 0.0 | 0.0 | 0.00 | 0.00 | 0.00 | 77 | 1010.6 |
| 20260504045321 | 60 | 318 | 0.0 | 0.0 | 0.00 | 0.00 | 0.00 | 76 | 1010.8 |
| 20260504044320 | 61 | 318 | 0.0 | 0.0 | 0.00 | 0.00 | 0.00 | 74 | 1010.7 |
| 20260504043322 | 62 | 318 | 0.0 | 0.0 | 0.00 | 0.00 | 0.00 | 72 | 1010.7 |
| 20260504042318 | 63 | 318 | 0.0 | 0.0 | 0.00 | 0.00 | 0.00 | 70 | 1010.7 |
| 20260504041318 | 64 | 318 | 0.0 | 0.0 | 0.00 | 0.00 | 0.00 | 68 | 1010.7 |
| 20260504040337 | 65 | 318 | 0.0 | 0.0 | 0.00 | 0.00 | 0.00 | 66 | 1010.6 |
| 20260504035345 | 67 | 318 | 0.0 | 2.0 | 0.00 | 0.00 | 0.00 | 61 | 1010.6 |
| 20260504034341 | 68 | 319 | 1.0 | 3.0 | 0.00 | 0.00 | 0.00 | 58 | 1010.5 |
| 20260504033319 | 70 | 319 | 1.0 | 2.0 | 0.00 | 0.00 | 0.00 | 55 | 1010.5 |
| 20260504032335 | 71 | 319 | 1.0 | 4.0 | 0.00 | 0.00 | 0.00 | 52 | 1010.4 |
| 20260504031325 | 72 | 344 | 0.0 | 4.0 | 0.00 | 0.00 | 0.00 | 50 | 1010.3 |
| 20260504030323 | 73 | 340 | 2.0 | 5.0 | 0.00 | 0.00 | 0.00 | 49 | 1010.5 |
| 20260504025356 | 73 | 355 | 4.0 | 6.0 | 0.00 | 0.00 | 0.00 | 47 | 1010.5 |
| 20260504024344 | 74 | 339 | 5.0 | 8.0 | 0.00 | 0.00 | 0.00 | 46 | 1010.5 |
| 20260504023344 | 74 | 323 | 5.0 | 9.0 | 0.00 | 0.00 | 0.00 | 46 | 1010.4 |